This is the latest recevied weather packets stored in our database for station/object KA1JKB. If no packets are shown the sender has not sent any weather packets the latest 10 day(s).
| Time | Temp. | Humidity | Pressure | Rain* | Wind** | Luminosity | Snow |
|---|---|---|---|---|---|---|---|
| 1787766969 | 25.56° C | 71% | 1010.9 hPa | 0 mm | - | 645 W/m² | - |
| 1787766663 | 25.56° C | 70% | 1010.8 hPa | 0 mm | - | 674 W/m² | - |
| 1787766363 | 25.56° C | 69% | 1011.4 hPa | 0 mm | - | 674 W/m² | - |
| 1787766061 | 25.56° C | 71% | 1011.3 hPa | 0 mm | - | 694 W/m² | - |
| 1787765758 | 25.56° C | 72% | 1011.4 hPa | 0 mm | - | 677 W/m² | - |
| 1787765454 | 25.56° C | 70% | 1011.4 hPa | 0 mm | - | 757 W/m² | - |
| 1787765153 | 25° C | 70% | 1011.7 hPa | 0 mm | - | 467 W/m² | - |
| 1787764849 | 25° C | 72% | 1011.4 hPa | 0 mm | - | 328 W/m² | - |
| 1787764544 | 25.56° C | 71% | 1011.5 hPa | 0 mm | - | 349 W/m² | - |
| 1787764244 | 25.56° C | 72% | 1011.7 hPa | 0 mm | - | 720 W/m² | - |
| 1787763940 | 25° C | 72% | 1011.7 hPa | 0 mm | - | 769 W/m² | - |
| 1787763636 | 25° C | 73% | 1011.8 hPa | 0 mm | - | 827 W/m² | - |
| 1787763331 | 24.44° C | 73% | 1011.7 hPa | 0 mm | - | 897 W/m² | - |
| 1787763031 | 23.89° C | 73% | 1012.1 hPa | 0 mm | - | 557 W/m² | - |
| 1787762731 | 24.44° C | 73% | 1012.1 hPa | 0 mm | - | 365 W/m² | - |
| 1787762430 | 23.89° C | 73% | 1012.1 hPa | 0 mm | - | 621 W/m² | - |
| 1787762127 | 24.44° C | 74% | 1012 hPa | 0 mm | - | 434 W/m² | - |
| 1787761823 | 23.89° C | 74% | 1012 hPa | 0 mm | - | 774 W/m² | - |
| 1787761518 | 23.89° C | 76% | 1012.2 hPa | 0 mm | - | 745 W/m² | - |
| 1787761213 | 23.33° C | 76% | 1012.3 hPa | 0 mm | - | 466 W/m² | - |
| 1787760912 | 22.78° C | 76% | 1012.6 hPa | 0 mm | - | 286 W/m² | - |
| 1787760610 | 22.78° C | 76% | 1012.5 hPa | 0 mm | - | 236 W/m² | - |
| 1787760310 | 23.33° C | 75% | 1012.4 hPa | 0 mm | - | 220 W/m² | - |
| 1787760010 | 23.89° C | 74% | 1012.5 hPa | 0 mm | - | 260 W/m² | - |
| 1787759708 | 24.44° C | 73% | 1012.5 hPa | 0 mm | - | 400 W/m² | - |
* Rain latest hour (hover to see other rain measurements)
** Current wind speed in m/s (hover to see current wind gust speed)